カタログに戻る

STARLINK-34064

運用中通信VLEO
NORAD 64114·PAYLOAD·🇺🇸 United States

打ち上げ May 23, 2025 から Vandenberg Space Force Base

Loading…

次のパス (今後24時間)

TLE

最新Source: CelesTrak SupGP

元期: Sep 14, 2026, 22:53 UTC

1 64114C 25110U   26257.95395833  .00011051  00000+0  35529-3 0  2573
2 64114  53.1576 226.4116 0001377  93.2903  32.5205 15.31702732    10

AllMySatでSTARLINK-34064をリアルタイム追跡

Download on the App Store